Location: Observatoire de l'Aigle
(47.0607°N, 71.3152°W)
Time: 05:02:35
(UTC-05:00)

Amateur Radio Satellites - All Passes

Search period start: 18 January 2017 04:32
Search period end: 19 January 2017 04:32
Location: Observatoire de l'Aigle, 47.0607°N, 71.3152°W

Satellite Date Start Highest point End Downlink Frequencies (MHz)
Time Altitude Azimuth
Cubesat XI-IV 18 Jan 04:36:32 04:37:13 10° 85° (E) 04:37:53 437.490
AIST 2 18 Jan 04:37:03 04:41:16 70° 237° (WSW) 04:45:29 435.215
GONETS M04 18 Jan 04:38:38 04:43:58 17° 52° (NE) 04:49:18
Cosmos 2491 18 Jan 04:39:58 04:45:44 19° 306° (NW) 04:51:33 435.465 / 435.565
ITAMSAT 1 18 Jan 04:41:35 04:45:16 20° 301° (WNW) 04:48:56 435.822/435.867
NOAA 15 18 Jan 04:53:24 04:56:42 16° 89° (E) 05:00:00 137.62
BRITE-PL 18 Jan 04:55:13 05:00:21 83° 103° (ESE) 05:05:02 437.365/2234.400
HORYU 2 18 Jan 05:07:18 05:11:38 49° 100° (E) 05:15:57 437.375
ISS 18 Jan 05:11:57 05:14:59 36° 216° (SW) 05:18:00 145.825
GOMX 1 18 Jan 05:13:37 05:18:06 50° 99° (E) 05:22:17 467.674
STARS 18 Jan 05:13:38 05:15:29 12° 271° (W) 05:17:21 437.465
Cosmos 2499 18 Jan 05:24:30 05:30:41 29° 65° (ENE) 05:36:40 435.465 / 435.565
CUBESAT XI-V 18 Jan 05:28:23 05:29:38 11° 274° (W) 05:30:53 437.345
CUTE-I 18 Jan 05:30:52 05:35:40 33° 96° (E) 05:40:27 437.470
O/OREOS (USA 219) 18 Jan 05:37:45 05:40:46 18° 101° (E) 05:43:48 437.305
LilacSat-2 18 Jan 05:44:00 05:47:45 47° 99° (E) 05:51:29 437.200
CUSAT 1 18 Jan 05:48:05 05:49:12 10° 315° (NW) 05:50:21 437.405
NOAA 18 18 Jan 05:55:16 06:00:02 30° 95° (E) 06:04:46 137.9125
AO-7 18 Jan 05:56:33 06:02:53 25° 313° (NW) 06:09:12 29.400- 29.500
PHONESAT 2.4 18 Jan 05:59:15 06:00:30 13° 191° (S) 06:01:44 2401.200-2431.200
STRAND 1 18 Jan 06:02:37 06:07:41 76° 74° (ENE) 06:12:49 437.568
DOVE 4 18 Jan 06:06:41 06:10:57 69° 102° (ESE) 06:15:04 437.250
DANDE 18 Jan 06:09:30 06:11:03 12° 309° (NW) 06:12:45 436.750
Cubesat XI-IV 18 Jan 06:12:51 06:18:13 73° 103° (ESE) 06:23:33 437.490
CINEMA 3 18 Jan 06:18:22 06:21:39 22° 93° (E) 06:24:57 145.822/145.860
NOAA 15 18 Jan 06:31:44 06:37:05 76° 288° (WNW) 06:42:22 137.62
HO-68 18 Jan 06:33:54 06:39:57 28° 93° (E) 06:45:56 435.675
GONETS M04 18 Jan 06:33:59 06:42:49 67° 77° (ENE) 06:51:36
BRITE-PL 18 Jan 06:35:08 06:38:03 16° 304° (WNW) 06:40:50 437.365/2234.400
RS-15 18 Jan 06:36:51 06:48:46 48° 32° (NNE) 07:00:22 29.354- 29.394
HORYU 2 18 Jan 06:44:35 06:47:52 21° 298° (WNW) 06:51:08 437.375
CUTE 1.7 + AOD 2 18 Jan 06:48:14 06:51:55 27° 94° (E) 06:55:34 437.475
GOMX 1 18 Jan 06:52:31 06:55:48 20° 299° (WNW) 06:58:57 467.674
PCSat 18 Jan 07:00:43 07:02:43 12° 20° (NNE) 07:04:43 145.827
PRISM 18 Jan 07:02:37 07:05:33 19° 62° (ENE) 07:08:29 437.425
CUTE-I 18 Jan 07:10:51 07:15:46 39° 294° (WNW) 07:20:40 437.470
O/OREOS (USA 219) 18 Jan 07:15:22 07:19:46 54° 299° (WNW) 07:24:10 437.305
CANX-2 18 Jan 07:16:30 07:20:47 61° 100° (E) 07:25:02 2200.000
Cosmos 2499 18 Jan 07:17:15 07:24:20 59° 268° (W) 07:31:11 435.465 / 435.565
LilacSat-2 18 Jan 07:19:13 07:21:42 17° 296° (WNW) 07:24:11 437.200
CUBEBUG 2 18 Jan 07:30:42 07:34:34 32° 96° (E) 07:38:31 437.445
SEEDS 18 Jan 07:33:17 07:37:28 53° 100° (E) 07:41:38 437.485
NOAA 18 18 Jan 07:35:42 07:40:51 44° 293° (WNW) 07:45:59 137.9125
Oscar 11 18 Jan 07:36:20 07:38:20 13° 88° (E) 07:40:21 145.826/435.025
COMPASS 1 18 Jan 07:43:52 07:47:58 46° 99° (E) 07:52:01 437.405
STRAND 1 18 Jan 07:44:31 07:47:28 15° 271° (W) 07:50:25 437.568
DOVE 4 18 Jan 07:45:57 07:48:05 14° 301° (WNW) 07:50:12 437.250
Cubesat XI-IV 18 Jan 07:54:02 07:57:43 19° 302° (WNW) 08:01:26 437.490
CINEMA 3 18 Jan 07:55:05 07:58:55 37° 291° (WNW) 08:02:48 145.822/145.860
AAUSAT CUBESAT 2 18 Jan 07:57:54 08:02:01 50° 99° (E) 08:06:04 437.432
SO-50 18 Jan 07:58:41 08:03:05 40° 119° (ESE) 08:07:27 436.795
UWE-3 18 Jan 08:04:34 08:08:44 46° 99° (E) 08:13:00 435.000/436.395/437.385
FUNcube-1 18 Jan 08:08:00 08:11:49 29° 95° (E) 08:15:41 145.935
UNISAT 6 18 Jan 08:12:51 08:16:31 29° 67° (ENE) 08:20:14 437.425
NOAA 15 18 Jan 08:13:26 08:15:59 14° 307° (NW) 08:18:31 137.62
HO-68 18 Jan 08:21:03 08:28:10 65° 293° (WNW) 08:35:14 435.675
CUTE 1.7 + AOD 2 18 Jan 08:23:55 08:27:47 33° 292° (WNW) 08:31:36 437.475
TIGRISAT 18 Jan 08:26:45 08:30:39 37° 69° (ENE) 08:34:35 435.000
ZACube-1 18 Jan 08:29:15 08:33:31 52° 100° (E) 08:37:50 437.345
GONETS M04 18 Jan 08:31:38 08:38:59 31° 278° (W) 08:46:21
PRISM 18 Jan 08:36:28 08:40:30 48° 260° (W) 08:44:35 437.425
ANTELSAT 18 Jan 08:41:01 08:45:11 54° 72° (ENE) 08:49:21 437.575/2403.000
PCSat 18 Jan 08:42:52 08:47:50 34° 44° (NE) 08:52:46 145.827
RS-15 18 Jan 08:50:01 09:02:21 76° 239° (WSW) 09:14:14 29.354- 29.394
CANX-2 18 Jan 08:53:30 08:56:11 16° 299° (WNW) 08:58:52 2200.000
JAS-2 18 Jan 08:55:17 08:59:59 32° 62° (ENE) 09:05:04 435.910
HUMSAT D 18 Jan 09:03:51 09:07:08 21° 93° (E) 09:10:25 437.325/437.525
POPSAT HIP 1 18 Jan 09:05:30 09:07:08 12° 58° (ENE) 09:08:46 437.405
CUBEBUG 2 18 Jan 09:07:29 09:11:07 28° 293° (WNW) 09:14:50 437.445
SEEDS 18 Jan 09:09:55 09:12:47 18° 298° (WNW) 09:15:39 437.485
Oscar 11 18 Jan 09:10:36 09:14:58 71° 286° (WNW) 09:19:19 145.826/435.025
DUCHIFAT 1 18 Jan 09:18:54 09:21:08 14° 60° (ENE) 09:23:22 145.980
COMPASS 1 18 Jan 09:20:09 09:23:13 20° 296° (WNW) 09:26:14 437.405
NANOSAT C BR1 18 Jan 09:22:33 09:25:13 17° 62° (ENE) 09:27:54 145.865
AAUSAT CUBESAT 2 18 Jan 09:34:15 09:37:07 18° 297° (WNW) 09:39:58 437.432
DELFI C3 18 Jan 09:37:45 09:41:47 84° 103° (ESE) 09:45:47 145.870
SO-50 18 Jan 09:39:19 09:43:37 35° 318° (NW) 09:47:53 436.795
UWE-3 18 Jan 09:41:44 09:44:55 21° 296° (WNW) 09:48:10 435.000/436.395/437.385
FUNcube-1 18 Jan 09:44:13 09:48:02 31° 292° (WNW) 09:51:55 145.935
UNISAT 6 18 Jan 09:49:29 09:53:13 29° 264° (W) 09:56:58 437.425
BUGSAT 1 18 Jan 10:03:42 10:06:06 15° 61° (ENE) 10:08:28 437.445
TIGRISAT 18 Jan 10:04:05 10:07:29 23° 267° (W) 10:10:53 435.000
ZACube-1 18 Jan 10:06:25 10:09:28 19° 297° (WNW) 10:12:32 437.345
HO-68 18 Jan 10:10:28 10:14:35 16° 314° (NW) 10:18:43 435.675
QB50P1 18 Jan 10:11:32 10:15:37 53° 72° (ENE) 10:19:43 145.935-145.965
POLYITAN 1 18 Jan 10:14:50 10:18:57 58° 73° (ENE) 10:23:05 437.675
QB50P2 18 Jan 10:15:57 10:20:05 63° 73° (ENE) 10:24:16 145.880/145.840
ANTELSAT 18 Jan 10:19:38 10:22:14 16° 270° (W) 10:24:52 437.575/2403.000
BY70-1 18 Jan 10:20:06 10:23:13 31° 97° (E) 10:26:11 436.1900
PCSat 18 Jan 10:26:12 10:31:24 47° 245° (WSW) 10:36:34 145.827
Oscar 19 18 Jan 10:29:51 10:32:01 13° 53° (NE) 10:34:11 437.125/150
CUBEBUG 1 18 Jan 10:30:30 10:32:53 14° 89° (E) 10:35:15 437.445
POPSAT HIP 1 18 Jan 10:38:05 10:42:17 83° 258° (WSW) 10:46:30 437.405
HUMSAT D 18 Jan 10:38:53 10:42:54 41° 290° (WNW) 10:46:56 437.325/437.525
JAS-2 18 Jan 10:39:57 10:44:57 41° 264° (W) 10:50:26 435.910
AISAT 18 Jan 10:40:48 10:42:32 12° 88° (E) 10:44:15 437.250
Cosmos 2491 18 Jan 10:49:37 10:54:48 17° 52° (NE) 10:59:59 435.465 / 435.565
ESTCUBE 1 18 Jan 10:50:20 10:54:36 38° 97° (E) 10:58:48 437.505/2401.250
DUCHIFAT 1 18 Jan 10:52:09 10:56:18 68° 258° (WSW) 11:00:28 145.980
NANOSAT C BR1 18 Jan 10:56:26 11:00:32 56° 259° (W) 11:04:40 145.865
50 SAT 18 Jan 11:03:15 11:04:47 12° 90° (E) 11:06:19 437.505
RS-15 18 Jan 11:04:25 11:12:39 22° 263° (W) 11:20:43 29.354- 29.394
VELOX 1 18 Jan 11:12:50 11:16:27 24° 94° (E) 11:20:02 145.980
DELFI C3 18 Jan 11:14:48 11:15:58 11° 301° (WNW) 11:17:07 145.870
SO-50 18 Jan 11:23:44 11:25:26 12° 341° (NNW) 11:27:07 436.795
AO-7 18 Jan 11:26:15 11:30:00 14° 35° (NE) 11:33:45 29.400- 29.500
BUGSAT 1 18 Jan 11:37:02 11:41:03 58° 259° (W) 11:45:03 437.445
QB50P1 18 Jan 11:49:05 11:51:43 16° 269° (W) 11:54:21 145.935-145.965
BY70-1 18 Jan 11:50:56 11:53:22 18° 295° (WNW) 11:55:45 436.1900
POLYITAN 1 18 Jan 11:52:44 11:55:07 15° 270° (W) 11:57:30 437.675
DX 1 18 Jan 11:53:00 11:56:51 30° 96° (E) 12:00:40 434.975-435.025
QB50P2 18 Jan 11:54:12 11:56:19 14° 271° (W) 11:58:27 145.880/145.840
UKube-1 18 Jan 11:57:13 12:00:48 25° 95° (E) 12:04:21 .
SPROUT 18 Jan 11:59:36 12:03:47 55° 100° (E) 12:07:57 437.525
Gurwin Techsat 1B 18 Jan 12:00:15 12:05:07 38° 66° (ENE) 12:10:01 435.225
Oscar 19 18 Jan 12:05:16 12:10:26 73° 73° (ENE) 12:15:39 437.125/150
CUBEBUG 1 18 Jan 12:05:17 12:09:36 63° 287° (WNW) 12:13:51 437.445
AISAT 18 Jan 12:15:08 12:19:33 77° 286° (WNW) 12:23:54 437.250
ESTCUBE 1 18 Jan 12:27:27 12:31:14 26° 295° (WNW) 12:35:00 437.505/2401.250
AIST 1 18 Jan 12:32:50 12:34:00 11° 82° (E) 12:35:10
50 SAT 18 Jan 12:34:50 12:38:19 50° 288° (WNW) 12:41:46 437.505
ITAMSAT 1 18 Jan 12:44:22 12:48:18 22° 60° (ENE) 12:52:14 435.822/435.867
Cosmos 2491 18 Jan 12:44:56 12:53:41 66° 77° (ENE) 13:02:26 435.465 / 435.565
CUSAT 1 18 Jan 12:47:08 12:54:14 35° 65° (ENE) 13:01:13 437.405
VELOX 1 18 Jan 12:48:57 12:53:01 38° 292° (WNW) 12:57:04 145.980
YUBILEINY 18 Jan 12:57:04 13:04:22 31° 81° (E) 13:11:42 435.215
BEESAT 18 Jan 13:10:03 13:11:11 11° 87° (E) 13:12:19 436.000
SWISSCUBE 18 Jan 13:10:37 13:12:40 13° 88° (E) 13:14:42 437.505
AO-7 18 Jan 13:12:54 13:20:41 45° 58° (ENE) 13:28:30 29.400- 29.500
DANDE 18 Jan 13:13:09 13:18:45 23° 61° (ENE) 13:24:51 436.750
DX 1 18 Jan 13:29:12 13:33:00 30° 294° (WNW) 13:36:46 434.975-435.025
UKube-1 18 Jan 13:32:57 13:36:54 35° 292° (WNW) 13:40:49 .
TISAT 1 18 Jan 13:36:03 13:40:14 88° 95° (E) 13:44:25 437.305
SPROUT 18 Jan 13:36:30 13:39:19 17° 298° (WNW) 13:42:07 437.525
Gurwin Techsat 1B 18 Jan 13:40:20 13:45:06 33° 264° (W) 13:49:55 435.225
AO-85 18 Jan 13:42:10 13:46:18 31° 118° (ESE) 13:50:12 145.980
Cosmos 2504 18 Jan 13:45:05 13:52:27 33° 84° (E) 13:59:28 435.465 / 435.565
Oscar 19 18 Jan 13:47:01 13:50:18 17° 271° (W) 13:53:37 437.125/150
AISAT 18 Jan 13:54:29 13:55:13 10° 305° (NW) 13:55:57 437.250
O/OREOS (USA 219) 18 Jan 14:06:05 14:07:00 11° 40° (NE) 14:07:56 437.305
AIST 1 18 Jan 14:06:32 14:10:55 79° 279° (W) 14:15:18
ITUPSAT 1 18 Jan 14:08:47 14:13:18 38° 98° (E) 14:17:47 437.325
ITAMSAT 1 18 Jan 14:22:17 14:27:22 59° 258° (WSW) 14:32:30 435.822/435.867
CUSAT 1 18 Jan 14:28:49 14:36:39 64° 265° (W) 14:44:13 437.405
BRITE-PL 18 Jan 14:31:02 14:35:18 22° 61° (ENE) 14:39:31 437.365/2234.400
Cosmos 2491 18 Jan 14:42:34 14:49:54 31° 278° (W) 14:57:15 435.465 / 435.565
BEESAT 18 Jan 14:44:52 14:49:41 85° 104° (ESE) 14:54:29 436.000
SWISSCUBE 18 Jan 14:46:16 14:51:06 84° 285° (WNW) 14:55:54 437.505
SO-50 18 Jan 14:47:11 14:50:25 19° 31° (NNE) 14:53:37 436.795
GOMX 1 18 Jan 14:48:54 14:51:27 14° 57° (ENE) 14:53:57 467.674
YUBILEINY 18 Jan 14:51:43 15:00:29 68° 283° (WNW) 15:09:21 435.215
DANDE 18 Jan 14:54:52 15:02:18 85° 80° (E) 15:10:42 436.750
MOZHAYETS 4 18 Jan 15:00:54 15:05:20 42° 98° (E) 15:09:44
AO-7 18 Jan 15:05:20 15:13:23 50° 259° (W) 15:21:31 29.400- 29.500
TISAT 1 18 Jan 15:13:53 15:15:14 11° 302° (WNW) 15:16:35 437.305
CUTE-I 18 Jan 15:19:30 15:21:43 13° 53° (NE) 15:23:58 437.470
AO-85 18 Jan 15:22:20 15:26:40 39° 315° (NW) 15:30:42 145.980
STARS 18 Jan 15:23:16 15:24:05 10° 87° (E) 15:24:53 437.465
Cosmos 2504 18 Jan 15:36:47 15:45:23 63° 283° (WNW) 15:53:31 435.465 / 435.565
DOVE 4 18 Jan 15:39:22 15:42:02 15° 60° (ENE) 15:44:39 437.250
CUBESAT XI-V 18 Jan 15:41:11 15:44:32 19° 90° (E) 15:47:51 437.345
O/OREOS (USA 219) 18 Jan 15:42:58 15:47:25 59° 62° (ENE) 15:51:52 437.305
ITUPSAT 1 18 Jan 15:46:53 15:50:59 29° 296° (WNW) 15:55:05 437.325
NOAA 18 18 Jan 15:47:23 15:50:07 14° 53° (NE) 15:52:50 137.9125
KKS-1 18 Jan 15:57:13 16:01:33 49° 100° (E) 16:05:50 437.445
Cubesat XI-IV 18 Jan 15:59:23 16:03:40 25° 61° (ENE) 16:07:57 437.490
M-CUBED/EXP-1 PRIME 18 Jan 16:01:16 16:04:40 56° 106° (ESE) 16:07:54 437.505
BRITE-PL 18 Jan 16:07:33 16:13:14 70° 259° (WSW) 16:18:54 437.365/2234.400
HORYU 2 18 Jan 16:07:55 16:12:17 67° 73° (ENE) 16:16:41 437.375
CUSAT 1 18 Jan 16:13:13 16:17:07 15° 284° (WNW) 16:21:00 437.405
NOAA 15 18 Jan 16:15:49 16:20:36 36° 65° (ENE) 16:25:25 137.62
BEESAT 3 18 Jan 16:18:43 16:22:16 35° 118° (ESE) 16:25:53 437.485
GOMX 1 18 Jan 16:23:21 16:28:46 78° 74° (ENE) 16:33:58 467.674
BEESAT 18 Jan 16:24:14 16:26:48 15° 303° (WNW) 16:29:24 436.000
SWISSCUBE 18 Jan 16:25:58 16:28:08 13° 304° (NW) 16:30:19 437.505
SO-50 18 Jan 16:27:02 16:31:35 83° 51° (NE) 16:36:04 436.795
LilacSat-2 18 Jan 16:28:46 16:32:12 35° 70° (ENE) 16:35:41 437.200
MOZHAYETS 4 18 Jan 16:38:31 16:42:17 25° 296° (WNW) 16:46:03
DANDE 18 Jan 16:38:41 16:44:25 24° 276° (W) 16:50:36 436.750
AUBIESAT-1 18 Jan 16:39:55 16:43:19 58° 293° (WNW) 16:46:34 437.475
YUBILEINY 18 Jan 16:53:53 16:59:17 17° 308° (NW) 17:04:44 435.215
CUTE-I 18 Jan 16:55:34 17:00:51 71° 72° (ENE) 17:06:10 437.470
STARS 18 Jan 16:56:39 17:01:03 86° 280° (W) 17:05:25 437.465
BEESAT 2 18 Jan 16:58:26 17:02:08 40° 119° (ESE) 17:05:54 435.950
HO-68 18 Jan 17:06:01 17:12:06 31° 57° (ENE) 17:18:12 435.675
AO-85 18 Jan 17:07:00 17:08:10 11° 336° (NNW) 17:09:19 145.980
DOVE 4 18 Jan 17:14:07 17:19:10 84° 257° (WSW) 17:23:58 437.250
CUBESAT XI-V 18 Jan 17:17:39 17:22:15 54° 289° (WNW) 17:26:48 437.345
CINEMA 3 18 Jan 17:22:42 17:26:33 30° 68° (ENE) 17:30:18 145.822/145.860
O/OREOS (USA 219) 18 Jan 17:23:30 17:26:21 17° 260° (W) 17:29:12 437.305
NOAA 18 18 Jan 17:24:23 17:29:53 75° 72° (ENE) 17:35:23 137.9125
KKS-1 18 Jan 17:34:32 17:37:47 20° 298° (WNW) 17:41:00 437.445
Cosmos 2504 18 Jan 17:36:02 17:40:35 15° 306° (NW) 17:45:01 435.465 / 435.565
M-CUBED/EXP-1 PRIME 18 Jan 17:37:14 17:38:43 12° 306° (NW) 17:40:10 437.505
Cubesat XI-IV 18 Jan 17:38:15 17:43:25 53° 259° (W) 17:48:39 437.490
CUTE 1.7 + AOD 2 18 Jan 17:43:42 17:47:20 28° 67° (ENE) 17:51:00 437.475
HORYU 2 18 Jan 17:46:59 17:49:18 14° 270° (W) 17:51:37 437.375
GONETS M04 18 Jan 17:47:44 17:51:57 15° 71° (ENE) 17:56:10
BRITE-PL 18 Jan 17:51:02 17:52:37 11° 277° (W) 17:54:12 437.365/2234.400
NOAA 15 18 Jan 17:55:31 18:00:21 36° 263° (W) 18:05:14 137.62
BEESAT 3 18 Jan 17:56:27 17:59:55 30° 318° (NW) 18:03:27 437.485
LilacSat-2 18 Jan 18:03:51 18:06:37 19° 267° (W) 18:09:24 437.200
GOMX 1 18 Jan 18:04:00 18:07:20 16° 271° (W) 18:10:35 467.674
Cosmos 2499 18 Jan 18:05:41 18:11:49 23° 80° (E) 18:17:39 435.465 / 435.565
SO-50 18 Jan 18:09:11 18:11:23 14° 251° (WSW) 18:13:34 436.795
STRAND 1 18 Jan 18:10:45 18:14:35 21° 92° (E) 18:18:22 437.568
CANX-2 18 Jan 18:11:47 18:15:59 62° 73° (ENE) 18:20:13 2200.000
SEEDS 18 Jan 18:27:28 18:31:35 53° 72° (ENE) 18:35:44 437.485
CUBEBUG 2 18 Jan 18:31:46 18:35:36 37° 70° (ENE) 18:39:26 437.445
Oscar 11 18 Jan 18:33:59 18:36:33 16° 61° (ENE) 18:39:09 145.826/435.025
STARS 18 Jan 18:35:12 18:36:41 12° 304° (WNW) 18:38:11 437.465
BEESAT 2 18 Jan 18:36:36 18:40:02 27° 319° (NW) 18:43:32 435.950
COMPASS 1 18 Jan 18:37:06 18:41:06 45° 71° (ENE) 18:45:09 437.405
CUTE-I 18 Jan 18:37:59 18:41:27 17° 270° (W) 18:44:56 437.470
AIST 2 18 Jan 18:40:03 18:41:16 11° 108° (ESE) 18:42:29 435.215
AAUSAT CUBESAT 2 18 Jan 18:50:34 18:54:35 48° 72° (ENE) 18:58:39 437.432
HO-68 18 Jan 18:52:14 18:59:23 65° 257° (WSW) 19:06:34 435.675
DOVE 4 18 Jan 18:56:05 18:57:28 11° 273° (W) 18:58:51 437.250
CINEMA 3 18 Jan 18:59:47 19:03:41 29° 264° (W) 19:07:28 145.822/145.860
UWE-3 18 Jan 19:04:26 19:08:27 52° 72° (ENE) 19:12:30 435.000/436.395/437.385
FUNcube-1 18 Jan 19:06:30 19:10:09 31° 68° (ENE) 19:13:51 145.935
NOAA 18 18 Jan 19:07:31 19:11:07 18° 270° (W) 19:14:43 137.9125
CUTE 1.7 + AOD 2 18 Jan 19:19:19 19:23:05 31° 264° (W) 19:26:55 437.475
ZACube-1 18 Jan 19:27:54 19:31:56 56° 73° (ENE) 19:36:02 437.345
GONETS M04 18 Jan 19:38:24 19:46:59 69° 94° (E) 19:55:41
STRAND 1 18 Jan 19:49:04 19:54:07 58° 290° (WNW) 19:59:09 437.568
CANX-2 18 Jan 19:49:56 19:52:15 14° 271° (W) 19:54:35 2200.000
Cosmos 2499 18 Jan 19:55:40 20:04:09 81° 279° (W) 20:12:01 435.465 / 435.565
HUMSAT D 18 Jan 19:58:07 20:01:15 21° 64° (ENE) 20:04:26 437.325/437.525
SEEDS 18 Jan 20:04:56 20:07:36 16° 270° (W) 20:10:17 437.485
Oscar 11 18 Jan 20:07:56 20:12:12 64° 259° (W) 20:16:32 145.826/435.025
CUBEBUG 2 18 Jan 20:09:07 20:12:23 22° 267° (W) 20:15:37 437.445
COMPASS 1 18 Jan 20:13:55 20:16:53 19° 269° (W) 20:19:53 437.405
AIST 2 18 Jan 20:14:54 20:19:03 89° 322° (NW) 20:23:16 435.215
PRISM 18 Jan 20:15:33 20:18:24 18° 92° (E) 20:21:13 437.425
DELFI C3 18 Jan 20:25:44 20:29:43 71° 75° (ENE) 20:33:45 145.870
AAUSAT CUBESAT 2 18 Jan 20:27:32 20:30:20 17° 269° (W) 20:33:09 437.432
AO-85 18 Jan 20:31:10 20:33:03 13° 27° (NNE) 20:34:54 145.980
BY70-1 18 Jan 20:39:36 20:40:44 12° 61° (ENE) 20:41:54 436.1900
UWE-3 18 Jan 20:42:44 20:45:16 16° 270° (W) 20:47:47 435.000/436.395/437.385
FUNcube-1 18 Jan 20:42:58 20:46:25 26° 266° (W) 20:49:56 145.935
HO-68 18 Jan 20:45:55 20:48:30 12° 277° (W) 20:51:05 435.675
ZACube-1 18 Jan 21:06:18 21:08:37 14° 271° (W) 21:10:56 437.345
RS-15 18 Jan 21:13:39 21:17:43 12° 90° (E) 21:21:48 29.354- 29.394
CUBEBUG 1 18 Jan 21:29:04 21:32:10 19° 62° (ENE) 21:35:17 437.445
HUMSAT D 18 Jan 21:32:47 21:36:38 39° 262° (W) 21:40:33 437.325/437.525
UNISAT 6 18 Jan 21:37:01 21:41:14 42° 98° (E) 21:45:30 437.425
GONETS M04 18 Jan 21:37:03 21:44:34 31° 296° (WNW) 21:52:10
AISAT 18 Jan 21:40:26 21:43:23 18° 61° (ENE) 21:46:19 437.250
JAS-2 18 Jan 21:43:57 21:49:51 27° 92° (E) 21:56:06 435.910
PRISM 18 Jan 21:49:58 21:53:56 45° 290° (WNW) 21:57:51 437.425
TIGRISAT 18 Jan 21:50:56 21:55:16 55° 100° (E) 21:59:40 435.000
ESTCUBE 1 18 Jan 21:52:25 21:56:48 50° 71° (ENE) 22:01:12 437.505/2401.250
Cosmos 2499 18 Jan 21:52:53 21:58:30 20° 301° (WNW) 22:03:55 435.465 / 435.565
ISS 18 Jan 21:55:05 21:56:40 13° 134° (SE) 21:58:15 145.825
AIST 2 18 Jan 21:55:17 21:58:08 17° 327° (NNW) 22:01:01 435.215
DELFI C3 18 Jan 22:03:45 22:05:01 11° 272° (W) 22:06:16 145.870
ANTELSAT 18 Jan 22:05:37 22:10:03 82° 105° (ESE) 22:14:33 437.575/2403.000
BY70-1 18 Jan 22:07:44 22:10:38 47° 261° (W) 22:13:48 436.1900
AO-85 18 Jan 22:10:23 22:14:19 60° 50° (NE) 22:18:09 145.980
VELOX 1 18 Jan 22:12:42 22:16:38 32° 67° (ENE) 22:20:36 145.980
POPSAT HIP 1 18 Jan 22:21:23 22:23:18 13° 89° (E) 22:25:14 437.405
DUCHIFAT 1 18 Jan 22:34:12 22:36:41 15° 90° (E) 22:39:10 145.980
NANOSAT C BR1 18 Jan 22:38:20 22:41:18 18° 92° (E) 22:44:14 145.865
DX 1 18 Jan 22:51:05 22:55:09 39° 68° (ENE) 22:59:14 434.975-435.025
UKube-1 18 Jan 22:54:19 22:58:09 32° 67° (ENE) 23:02:00 .
SPROUT 18 Jan 22:55:34 22:59:45 61° 73° (ENE) 23:03:58 437.525
BEESAT 3 18 Jan 22:56:05 22:57:59 13° 29° (NNE) 22:59:52 437.485
TISAT 1 18 Jan 22:57:48 22:59:19 12° 58° (ENE) 23:00:50 437.305
YUBILEINY 18 Jan 23:02:32 23:08:21 19° 54° (NE) 23:14:06 435.215
CUBEBUG 1 18 Jan 23:03:46 23:08:05 53° 260° (W) 23:12:25 437.445
50 SAT 18 Jan 23:11:50 23:15:24 82° 257° (WSW) 23:19:02 437.505
UNISAT 6 18 Jan 23:14:17 23:17:43 23° 296° (WNW) 23:21:13 437.425
AISAT 18 Jan 23:15:00 23:19:24 60° 259° (W) 23:23:49 437.250
RS-15 18 Jan 23:15:41 23:27:04 56° 114° (ESE) 23:38:53 29.354- 29.394
BUGSAT 1 18 Jan 23:16:41 23:19:06 15° 91° (E) 23:21:29 437.445
JAS-2 18 Jan 23:28:22 23:35:16 71° 289° (WNW) 23:42:53 435.910
TIGRISAT 18 Jan 23:28:34 23:31:35 18° 298° (WNW) 23:34:38 435.000
QB50P1 18 Jan 23:28:34 23:32:46 65° 101° (ESE) 23:36:58 145.935-145.965
ISS 18 Jan 23:29:25 23:32:39 74° 154° (SSE) 23:35:55 145.825
PCSat 18 Jan 23:30:22 23:33:01 14° 103° (ESE) 23:35:42 145.827
ESTCUBE 1 18 Jan 23:30:35 23:33:52 20° 268° (W) 23:37:12 437.505/2401.250
POLYITAN 1 18 Jan 23:32:06 23:36:19 72° 102° (ESE) 23:40:33 437.675
QB50P2 18 Jan 23:33:16 23:37:31 79° 105° (ESE) 23:41:45 145.880/145.840
Cosmos 2504 18 Jan 23:35:15 23:38:13 12° 50° (NE) 23:41:08 435.465 / 435.565
BEESAT 2 18 Jan 23:36:26 23:38:40 14° 30° (NNE) 23:40:54 435.950
ANTELSAT 18 Jan 23:44:05 23:46:10 13° 301° (WNW) 23:48:16 437.575/2403.000
VELOX 1 18 Jan 23:49:12 23:53:05 29° 264° (W) 23:57:01 145.980
AO-85 18 Jan 23:52:00 23:54:13 15° 248° (WSW) 23:56:26 145.980
POPSAT HIP 1 18 Jan 23:55:20 23:59:32 67° 286° (WNW) 00:03:43 437.405
Cosmos 2491 18 Jan 23:58:55 00:03:01 14° 71° (ENE) 00:07:07 435.465 / 435.565
DUCHIFAT 1 19 Jan 00:08:36 00:12:43 56° 287° (WNW) 00:16:49 145.980
AIST 1 19 Jan 00:10:34 00:14:29 33° 73° (ENE) 00:18:21
NANOSAT C BR1 19 Jan 00:13:13 00:17:16 46° 289° (WNW) 00:21:17 145.865
Oscar 19 19 Jan 00:14:36 00:18:23 20° 91° (E) 00:22:07 437.125/150
Gurwin Techsat 1B 19 Jan 00:15:40 00:17:06 11° 85° (E) 00:18:32 435.225
BEESAT 19 Jan 00:18:08 00:21:29 20° 60° (ENE) 00:24:52 436.000
SWISSCUBE 19 Jan 00:19:16 00:22:52 22° 61° (ENE) 00:26:29 437.505
DX 1 19 Jan 00:27:57 00:31:27 23° 266° (W) 00:34:59 434.975-435.025
TISAT 1 19 Jan 00:30:07 00:34:19 85° 258° (WSW) 00:38:31 437.305
UKube-1 19 Jan 00:30:26 00:34:11 28° 264° (W) 00:37:57 .
BEESAT 3 19 Jan 00:32:28 00:36:27 58° 50° (NE) 00:40:23 437.485
SPROUT 19 Jan 00:33:43 00:36:04 14° 270° (W) 00:38:27 437.525
BUGSAT 1 19 Jan 00:50:51 00:54:46 51° 288° (WNW) 00:58:41 437.445
YUBILEINY 19 Jan 00:58:06 01:06:59 73° 78° (ENE) 01:15:45 435.215
QB50P1 19 Jan 01:05:40 01:08:03 15° 300° (WNW) 01:10:26 145.935-145.965
ISS 19 Jan 01:06:15 01:09:20 38° 351° (N) 01:12:25 145.825
POLYITAN 1 19 Jan 01:09:25 01:11:35 14° 300° (WNW) 01:13:45 437.675
PCSat 19 Jan 01:10:10 01:15:35 85° 122° (ESE) 01:21:03 145.827
QB50P2 19 Jan 01:10:50 01:12:44 13° 301° (WNW) 01:14:37 145.880/145.840
BEESAT 2 19 Jan 01:13:10 01:17:13 67° 51° (NE) 01:21:14 435.950
JAS-2 19 Jan 01:15:05 01:19:20 18° 307° (NW) 01:23:48 435.910
M-CUBED/EXP-1 PRIME 19 Jan 01:16:42 01:19:26 17° 57° (ENE) 01:22:02 437.505
ITUPSAT 1 19 Jan 01:18:14 01:22:55 63° 72° (ENE) 01:27:40 437.325
Cosmos 2504 19 Jan 01:26:11 01:33:38 59° 76° (ENE) 01:40:42 435.465 / 435.565
RS-15 19 Jan 01:27:48 01:39:40 59° 320° (NW) 01:51:56 29.354- 29.394
AIST 1 19 Jan 01:48:29 01:51:55 24° 272° (W) 01:55:19
Cosmos 2491 19 Jan 01:49:29 01:58:05 68° 93° (E) 02:06:43 435.465 / 435.565
Gurwin Techsat 1B 19 Jan 01:52:34 01:57:56 77° 104° (ESE) 02:03:15 435.225
Oscar 19 19 Jan 01:53:00 01:58:07 60° 289° (WNW) 02:03:11 437.125/150
CUSAT 1 19 Jan 01:53:35 01:57:18 19° 79° (ENE) 02:01:38 437.405
AUBIESAT-1 19 Jan 01:53:50 01:57:29 29° 62° (ENE) 02:00:58 437.475
BEESAT 19 Jan 01:54:10 01:58:51 60° 259° (WSW) 02:03:35 436.000
SWISSCUBE 19 Jan 01:55:41 02:00:19 52° 260° (W) 02:05:00 437.505
MOZHAYETS 4 19 Jan 02:05:26 02:09:53 56° 72° (ENE) 02:14:24
BEESAT 3 19 Jan 02:11:03 02:13:39 17° 248° (WSW) 02:16:14 437.485
STARS 19 Jan 02:21:47 02:24:22 16° 60° (ENE) 02:26:59 437.465
ITAMSAT 1 19 Jan 02:31:58 02:36:50 38° 98° (E) 02:41:41 435.822/435.867
ISS 19 Jan 02:43:09 02:46:15 41° 11° (N) 02:49:22 145.825
CUBESAT XI-V 19 Jan 02:47:05 02:51:00 27° 65° (ENE) 02:54:57 437.345
PHONESAT 2.4 19 Jan 02:47:52 02:47:57 10° 163° (SSE) 02:48:01 2401.200-2431.200
M-CUBED/EXP-1 PRIME 19 Jan 02:49:10 02:53:32 64° 253° (WSW) 02:57:38 437.505
BEESAT 2 19 Jan 02:52:13 02:54:31 15° 249° (WSW) 02:56:48 435.950
AIST 2 19 Jan 02:55:25 02:58:59 25° 39° (NE) 03:02:31 435.215
PCSat 19 Jan 02:55:26 02:59:41 23° 323° (NW) 03:03:57 145.827
YUBILEINY 19 Jan 02:55:54 03:02:57 28° 280° (W) 03:09:57 435.215
KKS-1 19 Jan 02:57:49 03:02:14 67° 72° (ENE) 03:06:40 437.445
ITUPSAT 1 19 Jan 02:58:08 03:01:12 17° 270° (W) 03:04:17 437.325
AO-7 19 Jan 03:03:01 03:11:05 48° 100° (E) 03:19:03 29.400- 29.500
Cosmos 2504 19 Jan 03:20:20 03:26:28 29° 278° (W) 03:32:23 435.465 / 435.565
AUBIESAT-1 19 Jan 03:28:00 03:31:50 31° 257° (WSW) 03:35:28 437.475
CUSAT 1 19 Jan 03:33:03 03:38:10 71° 284° (WNW) 03:44:53 437.405
Gurwin Techsat 1B 19 Jan 03:33:44 03:37:16 18° 303° (WNW) 03:40:49 435.225
Oscar 19 19 Jan 03:35:28 03:36:23 10° 309° (NW) 03:37:18 437.125/150
MOZHAYETS 4 19 Jan 03:44:20 03:47:25 18° 270° (W) 03:50:31
RS-15 19 Jan 03:44:31 03:55:26 35° 352° (N) 04:06:26 29.354- 29.394
Cosmos 2491 19 Jan 03:48:08 03:55:38 31° 296° (WNW) 04:03:14 435.465 / 435.565
STARS 19 Jan 03:55:52 04:00:14 67° 258° (WSW) 04:04:37 437.465
DANDE 19 Jan 04:07:35 04:11:23 74° 98° (E) 04:16:34 436.750
BRITE-PL 19 Jan 04:10:23 04:14:52 32° 93° (E) 04:19:01 437.365/2234.400
ITAMSAT 1 19 Jan 04:11:37 04:16:13 33° 296° (WNW) 04:20:48 435.822/435.867
ISS 19 Jan 04:19:38 04:22:52 61° 210° (SSW) 04:26:04 145.825
PHONESAT 2.4 19 Jan 04:19:57 04:21:32 16° 179° (S) 04:23:07 2401.200-2431.200
GOMX 1 19 Jan 04:23:52 04:26:42 16° 89° (E) 04:29:26 467.674
